Regional Weather Roundup
Issued by NWS San Diego, CA

Home | Current Version | Previous Version | Text Only | Print | Product List | Glossary On
Versions: 1 2 3 4 5 6 7 8 9 10 11 12 13 14 15 16 17 18 19 20 21 22 23 24 25 26 27 28 29 30 31 32 33 34 35 36 37 38 39 40 41 42 43 44 45 46 47 48 49 50
000
ASUS46 KSGX 031611
RWRSGX

SAN DIEGO HOURLY WEATHER ROUNDUP
NATIONAL WEATHER SERVICE SAN DIEGO CA
800 AM PST TUE MAR 03 2015

NOTE: "FAIR" INDICATES FEW OR NO CLOUDS BELOW 12,000 FEET WITH NO
SIGNIFICANT WEATHER AND/OR OBSTRUCTIONS TO VISIBILITY.

CAZ042-043-060-061-PZZ750-775-031700-

GREATER SAN DIEGO AREA

CITY           SKY/WX    TMP DP  RH WIND       PRES   REMARKS
LINDBERGH FLD  MOSUNNY   55  43  63 CALM      29.96R
NATIONAL CITY    N/A     52  48  87 CALM      29.95R
CHULA VISTA      N/A     52  47  84 CALM      29.87R
IMPERIAL BEACH PTSUNNY   55  47  74 E6        29.96R
BROWN FIELD    CLOUDY    53  45  74 SE7       29.94R
MIRAMAR MCAS   MOSUNNY   55  43  63 E5        29.94R
MONTGOMERY FLD MOSUNNY   54  43  66 E5        29.94R

$$

NORTH SAN DIEGO COUNTY

CITY           SKY/WX    TMP DP  RH WIND       PRES   REMARKS
CAMP PENDLETON MOSUNNY   50  42  74 CALM      29.97R
OCEANSIDE AP   SUNNY     49  41  74 NE6       29.95R
OCEANSIDE HBR    N/A     51  44  75 NE9       29.98R
VISTA            N/A     45  40  83 CALM      29.95R
CARLSBAD       SUNNY     52  42  69 N3        29.94R
DEL MAR          N/A     50  45  81 CALM      29.96R
LA JOLLA SCRIP   N/A     54  28  37 CALM      29.92R
FALLBROOK        N/A     48  46  91 CALM      29.97S
ESCONDIDO        N/A     50  45  84 CALM      29.98R
SAN MARCOS       N/A     50  44  79 CALM      29.94
POWAY            N/A     46  44  93 CALM      29.98R

$$

EAST SAN DIEGO COUNTY

CITY           SKY/WX    TMP DP  RH WIND       PRES   REMARKS
RAMONA         SUNNY     45  41  86 E3        29.94R
SANTEE LAKES     N/A     47  45  94 CALM      29.97R
LA MESA          N/A     50  43  78 NE3       29.89R
JAMUL            N/A     48  46  93 CALM      29.95S
DESCANSO N       N/A     41  38  90 CALM      29.90S
MT. LAGUNA OBS   N/A     31  31 100 CALM      29.50S
CAMPO            N/A     45  40  82 E3        29.89S

$$

ORANGE COUNTY AND THE LOS ANGELES BASIN

CITY           SKY/WX    TMP DP  RH WIND       PRES   REMARKS
JOHN WAYNE AP  MOSUNNY   57  40  52 CALM      29.96R
LAKE FOREST FR   N/A     48  37  65 NE2       29.87R
SANTA ANA        N/A     48  43  83 CALM      29.92R
HUNTINGTON BCH   N/A     51  46  81 CALM      29.98R
LOS ALAMITOS   MOSUNNY   51  44  76 NE5       29.96R
FULLERTON      SUNNY     51  42  71 CALM      29.95R
LONG BEACH     SUNNY     53  43  68 NE3       29.96R
L.A. AP        MOSUNNY   52  43  71 NE6       29.96R
L.A. DOWNTOWN  SUNNY     52  42  69 CALM      29.96R

$$

THE INLAND EMPIRE

CITY           SKY/WX    TMP DP  RH WIND       PRES   REMARKS
CORONA         SUNNY     45  44  96 CALM      29.98R
CHINO          MOSUNNY   47  42  83 E3        29.98R
ONTARIO        MOSUNNY   49  39  68 CALM      29.96R
SAN BERNARDINO MOSUNNY   45  34  65 CALM      29.97R
RIVERSIDE AP   MOSUNNY   47  40  76 NE5       29.97R
RIV CYN CREST    N/A     45  45 100 S5          N/A
MORENO VALLEY    N/A     46  44  96 CALM      29.15R
MARCH ARB      SUNNY     41  41 100 SE3       29.95R
HORSETHIEF CYN   N/A     46  39  78 E2        29.96R
PERRIS           N/A     42  41  98 CALM        N/A
MENIFEE          N/A     42  41  99 CALM      30.07R
HEMET EAST       N/A     41  31  68 CALM      30.00R
FRENCH VALLEY  FAIR      43  37  81 NE3       29.97R
TEMECULA         N/A     40  39  99 CALM      29.93R

$$

SAN BERNARDINO AND RIVERSIDE COUNTY MOUNTAINS

CITY           SKY/WX    TMP DP  RH WIND       PRES   REMARKS
BIG BEAR AP    PTSUNNY   21  18  86 CALM      29.92R
ANGELUS OAKS     N/A     25  22  87 CALM      30.02R
PINE COVE        N/A     28  24  87 CALM      30.06R

$$

SOUTHERN DESERT INCLUDING THE COACHELLA VALLEY

CITY           SKY/WX    TMP DP  RH WIND       PRES   REMARKS
PALM SPRINGS   MOSUNNY   51  38  60 CALM      29.97R
THOUSAND PALMS   N/A     49  40  70 NW1       29.95
PALM DESERT      N/A     50  44  80 CALM      29.01S
THERMAL        SUNNY     52  41  66 CALM      29.95R
BLYTHE         SUNNY     50  45  83 W7        29.96R
EL CENTRO NAS  MOSUNNY   51  44  77 NW3       29.95R
YUMA AZ        MOSUNNY   56  48  74 NE5       29.95R
MEXICALI       SUNNY     54  43  66 CALM      29.95

$$

UPPER DESERT

CITY           SKY/WX    TMP DP  RH WIND       PRES   REMARKS
VICTORVILLE AP   N/A     39  34  81 SE7       29.96R WCI  34
HESPERIA         N/A     37  35  91 NW1       30.14R
APPLE VALLEY     N/A     38  34  86 CALM      30.04S
PALMDALE       SUNNY     40  36  86 CALM      29.96R
LANCASTER      SUNNY     40  35  83 N3        29.98R
EDWARDS AFB    MOSUNNY   38  33  82 NW3       29.95R
DAGGETT        SUNNY     44  35  70 W9        29.96R
29 PALMS N     MOSUNNY   45  36  70 CALM      30.02R
NEEDLES        SUNNY     52  41  66 CALM      29.95R

$$

REGIONAL REPORTS

CITY           SKY/WX    TMP DP  RH WIND       PRES   REMARKS
SANTA BARBARA  SUNNY     50  44  80 CALM      29.97R
SANDBERG       FOG       38  34  85 N10       29.94R VSB<1/4 WCI  31
MT. WILSON       N/A    N/A N/A N/A MISG        N/A
LAS VEGAS NV   MOSUNNY   47  35  63 SW7       29.90R
PHOENIX AZ     PTSUNNY   51  49  92 CALM      29.94R FOG
TIJUANA        PTSUNNY   52  43  71 E3        29.96R
ENSENADA NW      N/A     55  32  41 CALM      29.94R

$$

OFFSHORE ISLANDS

CITY           SKY/WX    TMP DP  RH WIND       PRES   REMARKS
CATALINA ARPT  PTSUNNY   46  31  55 NE7       29.95R
SAN CLEMENTE I MOSUNNY   57  47  69 E12       29.95
SAN NICOLAS IS MOSUNNY   58  44  60 N5        29.95R

$$

MARINE AND OFFSHORE BUOY REPORTS

STATION/POSITION SKY/WX   TEMP    WIND        PRES    SWELL
                          AIR SEA DIR/SP/G            HT/PER/DIR
                          (F)     (DEG/KT/KT) (MB)    (FT/S/D)
TANNER BANKS               58 61   60/  8/ 12 1013.2R   5/320/10
S CLEMENTE BASIN           55 62  110/  6/  8 1013.6R   3/340/19
SAN NICOLAS IS.               60                N/A     3/320/11
SO. S. ROSA ISLA           57 59   40/  8/  8 1013.8R   5/10
W. S. BARBARA CH           56 58   10/ 10/ 12 1014.5R   7/310/ 9
S. MONICA BASIN            57 62   70/  8/ 12 1014.5R   2/180/19
S PEDRO CHANNEL               60                N/A     2/180/14
DANA POINT                    61                N/A     2/200/20
CMP PENDLETON NS              61                N/A     2/210/18
TORREY PINES OTR              62                N/A     2/200/20
LA JOLLA 1                 52      90/ 11/ 13   N/A
MISSION BAY BUOY              62                N/A     2/190/20
SAN DIEGO BAY                 64              1014.2R
POINT LOMA SOUTH              62                N/A     2/190/20

$$




USA.gov is the U.S. government's official web portal to all federal, state and local government web resources and services.